Theta_e
338 337 338 339 340 341 340 339 340 342 341 341 340 339 337 335 334 334 332 329 331 332 331 329 330 331 332 333 332 333 333 333 333 333 334 334 334 334 335 335 335 336 337 336 336 335 335 334 333 333 333 330 328 328 329 330 331 330 330 330 330 330 330 330 330 330 330 330 330 331 330 331 330 330 330 330 330 330 330 331 331 332 332 331 330
337 337 339 339 340 341 340 340 340 341 342 341 340 338 336 335 335 334 328 328 331 331 330 330 331 331 332 333 332 333 333 333 333 333 333 333 333 333 334 335 335 335 336 336 334 332 332 333 332 331 330 329 327 327 328 330 331 331 330 330 331 331 330 330 329 328 329 329 329 329 329 329 330 330 330 330 331 330 329 329 329 330 330 329 329
336 338 339 339 339 341 340 340 341 341 341 340 339 337 335 334 334 331 325 327 329 330 331 329 330 331 331 332 332 332 332 332 332 332 332 332 333 333 335 335 335 335 335 334 332 330 330 331 330 328 326 325 325 325 327 328 329 329 329 330 330 329 329 329 328 328 327 328 328 328 329 329 329 331 331 331 331 330 330 330 329 329 330 330 329
337 338 339 339 338 340 339 339 340 340 339 339 338 335 334 333 331 327 324 327 329 329 329 327 329 330 330 331 331 332 332 332 332 332 332 332 332 333 335 334 333 333 332 331 330 329 329 328 327 326 325 323 324 326 327 327 327 327 327 328 328 326 327 327 328 328 328 328 328 328 329 329 329 330 329 330 331 330 330 330 329 329 330 330 330
337 338 340 338 338 339 339 338 339 339 338 338 337 334 333 333 330 326 324 329 330 329 326 326 330 331 330 330 331 331 331 332 331 331 331 331 332 333 335 334 334 332 331 330 329 329 327 325 324 323 322 323 325 326 327 326 327 327 328 329 328 325 324 325 326 327 328 328 328 328 328 329 329 329 329 329 330 329 328 328 328 329 329 329 330
337 338 339 338 338 339 338 338 339 339 338 338 336 333 332 332 330 325 325 330 332 330 325 326 329 330 331 330 331 330 331 331 330 330 330 331 333 333 333 333 333 331 330 329 330 329 326 325 324 321 321 325 326 326 326 326 326 327 328 328 327 323 322 323 323 324 326 327 327 328 328 328 328 328 328 328 328 327 327 328 327 328 328 329 329
337 338 338 339 339 338 338 338 339 338 338 338 336 332 331 332 330 325 326 331 332 329 323 325 326 325 329 331 331 330 330 330 329 330 329 331 333 333 333 333 332 331 329 329 329 328 325 323 322 323 324 326 326 325 325 326 325 326 326 326 325 323 322 322 323 322 323 324 325 325 326 326 327 328 327 328 328 327 327 327 327 327 327 328 328
337 337 338 339 338 338 338 338 339 339 338 338 335 331 329 331 330 325 327 331 332 329 322 320 321 323 328 331 331 330 330 329 329 329 330 332 333 333 333 332 332 331 329 329 329 327 325 321 322 325 326 325 325 325 325 325 325 325 325 324 324 323 324 325 325 324 324 325 325 325 325 326 327 327 327 327 328 328 327 326 326 327 326 327 327
337 337 337 338 338 338 337 338 338 338 339 337 336 331 328 330 329 325 327 331 331 329 322 316 317 323 328 331 331 330 329 329 328 329 331 332 332 332 331 331 330 330 330 330 328 325 324 321 323 326 325 325 325 325 326 326 325 325 325 324 324 325 325 326 326 326 326 326 326 327 327 327 327 327 327 326 326 326 326 326 326 326 327 326 327
338 338 338 337 337 338 337 338 338 338 338 337 335 330 329 330 329 325 327 331 331 328 322 316 314 317 325 330 330 329 329 329 328 328 331 332 331 331 330 330 330 331 331 330 327 324 323 322 323 325 325 325 325 325 326 326 326 326 326 325 325 325 326 326 327 326 326 327 327 328 328 328 327 327 327 326 325 326 326 327 327 327 327 326 326
339 339 338 337 337 338 338 337 338 338 337 336 335 330 329 330 329 326 327 332 331 326 322 317 311 312 322 329 330 330 329 328 328 328 330 331 330 330 331 331 331 331 330 330 327 323 323 323 325 326 325 325 325 326 326 326 326 326 327 326 326 326 327 327 327 327 327 328 328 328 328 328 327 327 327 327 327 327 326 326 327 327 326 326 326
341 340 338 337 336 336 337 336 337 337 336 336 336 332 329 331 331 328 328 332 331 325 320 318 312 308 317 327 330 329 329 329 328 328 329 329 330 331 331 331 331 330 329 328 325 323 322 324 327 325 324 325 325 326 326 326 326 326 327 327 327 327 327 327 327 327 328 329 329 328 328 329 329 329 328 327 327 327 326 326 326 326 326 325 326
342 341 339 337 336 336 336 336 336 336 337 336 336 333 329 331 333 331 329 331 331 326 322 319 314 308 311 320 327 329 328 328 328 327 329 329 331 331 330 330 330 330 329 326 322 321 322 325 327 324 324 325 326 327 326 326 326 326 327 328 328 328 328 328 328 328 328 329 330 329 329 330 329 328 327 326 326 325 325 325 325 325 324 323 322
342 342 340 337 336 337 337 337 337 336 337 337 336 332 329 332 334 333 331 331 330 328 325 321 317 312 309 313 322 328 328 328 328 328 328 329 330 330 330 330 331 330 329 326 320 320 323 325 326 324 325 325 326 327 326 326 327 327 328 327 327 327 327 327 327 328 328 329 329 329 329 329 328 326 325 325 325 324 323 324 323 322 322 321 320
341 342 340 337 337 337 338 337 337 337 337 337 332 330 329 333 335 334 333 332 331 329 327 323 319 314 310 312 319 326 328 328 328 327 328 328 328 329 330 330 330 329 328 325 321 322 324 325 325 324 325 325 325 324 325 326 326 326 326 327 327 327 327 327 327 327 328 329 329 329 329 328 327 327 326 324 322 322 322 322 321 319 319 320 320
340 341 340 337 337 337 338 338 338 337 338 336 329 328 329 332 335 335 334 333 331 330 328 325 321 316 311 311 314 320 324 327 328 328 327 327 327 327 327 327 328 327 326 324 320 322 324 325 325 324 324 323 323 323 323 324 325 325 325 326 326 326 327 327 327 327 327 328 328 328 328 328 327 326 325 322 320 320 320 320 319 317 318 318 319
340 341 340 337 337 337 338 338 338 337 338 335 327 327 328 330 334 334 335 334 332 331 329 326 323 319 316 312 312 313 317 322 326 328 327 327 327 326 326 326 326 326 325 324 321 322 324 324 323 323 323 322 322 322 322 323 323 323 323 324 324 325 325 324 325 326 326 327 327 327 327 327 326 324 323 322 319 320 320 320 319 318 319 319 319
340 341 340 337 337 337 338 338 338 337 338 336 326 325 328 331 334 334 334 334 333 331 330 328 325 322 320 317 314 311 310 314 319 322 323 324 326 326 326 326 325 325 324 324 321 320 322 323 322 322 322 322 321 321 320 319 319 320 320 321 321 322 322 321 321 323 323 324 326 326 325 324 325 324 323 321 319 320 320 319 319 319 319 318 317
341 341 341 338 337 337 337 338 338 337 338 338 329 323 328 331 332 334 334 334 334 332 331 330 327 324 322 321 319 316 312 309 310 311 313 317 321 323 325 325 325 324 323 323 321 319 320 320 319 321 322 321 320 320 319 319 319 320 320 321 320 320 321 321 321 322 322 322 323 324 323 322 324 324 322 321 319 319 319 319 319 318 319 318 315
342 341 342 340 338 338 338 338 338 338 337 339 334 324 326 331 331 332 334 334 334 332 331 331 328 325 323 323 322 320 316 311 307 305 306 309 313 317 321 323 323 323 322 321 321 320 318 317 318 320 321 320 320 320 321 321 321 321 321 321 321 321 322 322 322 322 322 322 322 322 322 322 324 323 322 321 320 320 320 319 319 318 318 316 314
342 342 342 342 340 338 338 338 338 338 337 339 338 330 325 331 332 331 334 334 334 333 331 331 329 326 324 323 323 322 319 314 309 304 303 304 307 310 315 320 322 322 320 319 322 320 316 316 318 319 320 320 321 321 322 322 322 322 322 322 321 322 322 322 322 322 323 323 323 322 322 323 324 323 322 321 320 320 320 318 317 318 317 315 313
342 342 342 342 342 340 339 338 338 338 338 338 339 335 329 331 333 332 333 333 333 333 332 332 330 328 326 324 323 322 320 316 311 307 304 303 304 305 310 317 320 318 317 318 321 320 317 316 317 319 320 320 321 321 321 321 322 321 322 322 322 323 323 322 322 323 323 324 324 323 322 323 323 322 321 320 320 319 319 317 316 317 315 313 313
342 342 342 342 342 341 340 339 339 338 338 338 339 338 334 333 334 333 333 333 334 333 332 332 331 329 327 325 323 322 320 318 313 309 308 305 303 303 305 311 313 314 316 318 319 319 317 316 316 317 319 320 320 321 321 321 321 322 321 322 322 323 323 322 322 322 323 323 324 323 323 323 321 320 320 319 318 317 317 316 316 316 314 312 312
341 342 342 342 342 341 342 340 339 339 339 339 338 339 337 336 336 334 333 333 334 333 333 332 331 330 328 326 324 322 321 319 315 311 310 309 305 302 302 304 307 310 314 315 316 318 317 315 315 315 317 319 320 320 320 320 321 322 321 322 322 322 322 321 321 322 323 323 323 323 322 322 320 319 318 317 317 317 317 316 316 314 312 312 311
341 341 342 342 342 341 342 341 340 340 339 339 339 339 338 337 337 336 334 333 334 333 333 332 332 330 328 327 326 325 323 320 317 313 312 312 308 303 301 302 303 306 308 309 313 316 316 314 314 314 314 317 319 319 320 320 320 321 321 321 322 322 322 322 322 322 323 322 322 321 321 320 320 318 317 316 317 316 316 316 314 312 311 311 311
339 341 341 341 342 341 341 341 341 341 340 339 339 339 339 339 338 337 336 334 333 333 333 332 332 331 328 327 327 327 325 322 319 316 313 312 310 304 301 301 301 302 303 304 311 315 315 313 313 314 314 315 318 319 319 319 320 320 321 321 322 322 322 322 322 322 322 322 321 321 320 320 319 317 316 316 316 316 315 315 313 311 310 311 311
338 339 340 341 341 341 341 341 341 341 341 340 339 339 339 339 338 338 337 336 334 333 334 333 332 331 329 328 328 328 327 324 321 319 315 312 311 307 303 302 301 301 301 303 311 315 314 312 313 313 313 314 316 318 318 319 319 319 320 321 321 321 321 321 322 321 321 321 321 320 319 318 317 316 317 317 317 316 315 314 312 310 310 310 310
337 338 339 340 340 341 341 341 341 340 341 340 340 340 339 339 339 338 338 337 335 334 333 333 332 331 331 330 329 328 329 327 323 320 318 314 312 310 307 304 301 301 301 302 308 312 311 311 312 312 312 313 315 316 317 318 318 318 319 320 320 320 320 321 321 321 320 320 319 319 317 316 317 317 318 317 317 317 315 313 311 310 310 310 309
335 336 338 339 340 340 341 341 341 340 340 340 340 340 339 339 338 338 338 338 336 335 334 333 333 332 332 332 331 329 329 328 325 322 320 316 312 311 311 308 303 301 301 302 306 309 308 309 311 311 311 312 314 315 316 317 317 317 318 319 319 319 319 320 320 320 319 319 318 317 315 316 317 317 316 316 316 316 315 313 311 310 310 310 309
334 335 336 337 339 340 340 340 340 340 340 340 340 340 339 339 338 337 338 338 337 336 334 334 333 333 332 332 332 330 330 329 327 324 321 318 314 312 311 311 306 302 300 302 305 306 306 308 309 310 310 312 314 314 315 315 316 317 317 318 317 317 318 318 318 318 317 317 316 316 316 316 316 315 315 315 314 314 314 312 311 310 310 309 309
334 335 335 335 336 338 339 339 340 340 340 340 339 339 339 339 339 338 338 338 337 336 335 334 334 334 333 333 332 331 331 330 329 326 323 319 318 316 313 310 307 304 301 302 305 305 305 307 308 309 310 311 313 314 314 315 315 316 316 317 316 316 316 316 317 316 316 315 315 315 315 315 315 314 313 313 314 313 313 312 311 310 310 309 308
334 334 335 335 335 336 337 338 339 339 339 339 339 339 338 338 338 338 338 337 336 337 336 335 335 335 334 334 333 332 331 330 328 327 325 321 321 321 318 313 309 305 301 302 305 306 305 307 308 309 310 312 313 313 314 314 314 314 315 316 315 315 315 315 315 314 314 314 314 314 314 313 313 312 312 312 312 311 311 311 310 310 309 309 308
335 335 335 335 335 335 334 335 337 338 338 338 338 338 338 338 338 338 338 337 337 337 336 336 335 335 335 334 334 333 331 330 329 327 326 324 323 323 321 318 312 308 304 303 307 309 308 308 309 309 310 312 313 312 312 313 313 313 314 315 315 315 314 314 314 313 313 313 313 312 312 312 310 309 310 310 309 309 309 308 309 309 308 308 307
335 335 335 335 334 334 333 333 334 335 337 337 337 336 336 337 337 336 337 337 337 337 337 336 336 335 335 335 334 333 332 331 329 327 326 325 324 323 322 320 317 313 310 307 310 312 310 310 310 310 311 312 312 311 310 311 311 312 312 313 314 314 314 313 313 312 312 312 311 311 311 309 307 306 308 308 308 308 308 308 307 307 307 307 306
334 335 335 334 334 334 334 334 333 333 334 335 335 335 335 335 336 335 335 336 337 337 337 337 336 335 335 335 335 334 333 331 329 328 327 326 325 324 322 321 319 316 313 311 312 313 311 311 311 312 310 310 310 309 308 309 309 310 310 311 312 313 313 313 312 311 311 311 310 309 307 304 303 303 305 306 307 307 307 307 306 306 306 306 305
333 334 335 334 334 333 333 334 332 332 333 334 334 334 335 335 335 334 334 334 335 336 336 337 336 336 336 336 335 335 334 332 330 329 328 327 326 324 323 322 320 317 315 312 313 314 312 312 311 312 310 308 307 306 305 306 306 307 308 309 310 311 312 312 311 310 310 309 307 305 302 302 302 302 303 304 305 306 306 306 306 305 305 305 305
332 333 334 334 334 333 333 333 332 332 334 335 334 333 334 334 334 333 333 333 333 334 335 336 337 336 336 336 336 335 334 333 332 330 329 328 327 325 323 322 321 319 316 314 314 314 313 313 311 310 311 308 305 304 302 303 303 304 305 306 306 307 309 309 309 308 306 304 303 301 300 300 301 302 302 302 302 303 304 305 305 305 305 304 304
330 332 333 333 333 333 333 332 333 333 333 334 333 332 334 334 334 333 332 332 332 332 332 333 335 336 337 336 335 335 334 334 333 332 330 329 328 327 324 322 321 320 318 315 315 314 314 314 311 308 309 309 306 304 302 300 300 300 301 302 302 301 302 302 303 302 301 299 299 298 298 298 299 300 300 299 299 301 302 303 304 303 303 303 304
328 330 331 332 333 333 333 332 332 333 332 332 332 332 333 332 333 332 331 331 331 331 330 330 332 335 335 335 335 334 335 334 333 333 331 330 328 327 325 322 322 321 319 316 315 314 314 313 312 308 306 307 307 305 302 299 297 296 296 297 297 296 296 296 296 296 296 297 296 296 296 296 295 295 295 295 296 298 299 299 299 299 299 299 301
327 329 330 331 332 332 332 332 332 331 331 331 332 332 331 331 331 331 331 330 330 330 330 328 330 334 335 334 334 334 334 334 334 333 332 331 329 328 326 323 322 322 320 318 316 315 314 313 312 309 306 304 302 302 302 299 296 294 294 294 294 293 293 293 293 293 293 293 294 294 293 293 292 292 291 291 291 293 293 293 293 294 293 293 294
328 329 330 331 331 332 331 331 331 330 330 330 331 331 331 330 330 330 330 329 329 330 329 329 330 334 335 335 335 334 334 334 334 334 333 332 329 328 327 325 323 322 321 320 318 317 315 314 312 309 307 303 300 300 300 298 295 293 293 293 292 292 292 292 292 292 292 291 291 291 291 291 290 290 289 289 289 289 290 290 290 290 289 289 289
327 329 330 329 330 331 330 330 330 330 329 328 329 330 330 330 329 329 329 328 328 329 329 330 331 333 334 335 335 334 333 333 333 333 333 333 331 329 328 327 325 324 322 320 319 317 315 314 311 308 305 303 302 300 298 297 296 293 292 292 291 291 292 292 292 291 291 291 290 290 290 289 289 289 288 288 288 288 288 288 288 288 288 288 288
325 327 328 329 329 330 329 330 329 329 329 328 328 328 330 329 328 328 327 327 327 328 329 330 331 331 332 333 333 333 333 332 331 331 331 332 332 331 328 328 327 325 323 319 317 316 314 312 311 309 306 303 301 299 297 298 298 294 292 294 293 291 291 291 291 291 290 290 290 289 289 288 289 288 288 288 288 288 288 288 288 288 288 288 288
323 325 327 328 328 328 328 328 329 329 328 328 328 327 328 328 327 327 326 326 326 327 328 329 330 330 330 330 331 331 332 332 332 332 331 331 332 332 329 328 328 326 323 320 318 316 315 312 310 310 308 303 299 297 298 299 300 297 295 295 293 293 296 293 290 290 290 290 289 289 288 288 287 287 287 287 287 287 287 288 287 287 287 287 287
321 323 325 326 327 327 328 328 328 328 327 327 327 327 327 327 326 326 325 325 325 325 326 327 328 328 328 328 329 329 329 329 330 330 331 331 332 332 331 329 328 327 323 321 321 318 316 315 313 311 310 307 302 298 297 298 301 302 301 298 295 297 299 294 290 290 289 290 290 289 289 288 287 287 287 287 287 287 287 287 287 287 287 287 287
319 321 322 324 324 325 326 326 327 327 327 326 326 326 326 326 325 324 324 324 324 324 324 325 326 326 327 327 327 327 326 326 325 326 327 328 330 331 330 330 330 327 324 322 322 320 317 316 314 312 311 311 307 301 298 298 300 302 303 304 302 304 301 292 291 292 289 289 289 289 289 288 288 287 287 287 287 287 287 287 287 287 287 287 287
316 318 319 321 321 322 322 324 324 325 325 325 325 325 325 324 324 324 323 323 322 323 324 324 324 325 325 325 326 325 325 323 322 324 325 326 328 329 329 330 330 328 326 323 323 321 318 316 316 316 314 312 309 304 300 299 298 299 301 303 303 306 305 297 294 294 291 289 289 289 289 289 288 287 287 287 287 286 287 286 286 286 286 286 286
315 316 317 318 319 319 319 320 322 322 323 324 324 324 324 323 323 323 322 322 322 321 322 322 323 323 323 324 324 323 323 321 321 325 327 326 327 328 329 329 329 329 327 326 325 322 318 318 317 316 313 311 309 308 305 300 298 299 301 301 300 302 304 302 299 297 294 291 289 288 289 289 288 288 287 287 287 286 286 286 286 286 286 286 286
315 315 315 316 316 317 318 318 320 321 321 322 323 323 323 323 322 322 321 321 321 320 321 321 321 321 321 321 321 321 320 317 318 324 326 327 328 329 329 329 329 328 328 327 327 323 320 319 317 315 313 311 309 308 306 302 300 301 301 300 300 300 299 299 299 297 294 294 292 289 288 289 288 288 288 287 287 287 286 286 286 286 286 286 286
315 315 314 314 315 315 316 317 318 319 320 321 321 321 321 321 321 321 320 320 320 319 319 318 318 319 318 319 319 318 317 315 315 320 325 326 328 329 329 329 328 328 328 329 326 324 321 319 318 317 315 312 309 306 305 305 304 305 303 301 300 299 298 295 295 295 293 293 293 289 287 288 288 288 288 288 288 287 287 286 285 285 285 285 286
315 314 314 313 314 315 315 317 318 319 320 320 320 320 320 320 320 320 319 319 319 318 318 317 317 317 317 317 317 317 316 314 314 318 323 325 326 328 328 327 328 327 328 328 326 325 323 320 318 316 313 311 309 306 305 306 307 306 303 302 301 300 300 298 295 295 293 292 293 290 288 288 288 288 288 288 288 287 287 286 285 285 285 285 285
Wind_Speed
14 14 13 13 14 13 13 13 12 12 13 13 13 14 13 12 13 12 12 13 14 14 14 16 17 17 18 17 17 17 17 17 17 18 18 18 18 18 18 16 15 16 17 18 18 18 18 19 20 22 22 24 25 26 27 27 28 28 28 29 29 30 30 30 30 29 29 29 28 27 27 27 28 28 29 29 29 28 28 29 30 31 30 30 30
16 16 13 14 15 14 14 13 13 12 12 13 14 13 13 12 12 11 12 13 14 14 14 16 17 17 17 17 17 17 17 17 17 17 18 17 18 17 17 16 14 15 16 18 18 19 19 19 20 22 23 24 25 27 29 28 27 27 27 27 27 28 28 29 29 30 30 30 30 29 28 28 28 29 29 29 28 29 29 28 29 30 30 30 31
18 17 14 15 16 15 14 14 14 13 13 13 14 14 13 12 12 11 11 13 14 15 15 16 16 16 16 17 17 17 17 17 17 18 18 18 17 16 16 16 14 14 16 17 17 19 19 18 20 24 26 26 28 30 31 30 29 28 27 26 26 27 27 29 30 31 31 32 32 31 30 29 29 29 28 28 27 29 30 29 29 30 29 30 31
18 17 16 16 16 15 14 14 15 14 14 14 14 14 12 12 12 11 12 13 14 14 14 14 16 16 16 17 17 17 18 18 18 18 18 18 16 14 15 16 15 14 16 17 17 18 18 17 19 23 26 28 29 30 31 31 30 28 27 26 26 25 26 28 30 31 31 31 31 31 32 30 29 28 28 27 27 29 31 32 31 31 30 30 30
19 18 16 16 16 15 14 15 16 16 16 15 14 13 12 12 12 11 12 13 14 13 13 15 16 16 16 16 17 17 18 18 18 17 17 18 16 15 16 16 16 16 16 18 18 18 18 17 19 23 26 28 29 29 28 28 28 27 26 27 26 25 25 27 29 30 31 30 30 32 32 30 29 28 27 27 27 28 30 32 31 30 30 30 30
19 18 17 16 16 15 15 15 16 17 16 15 14 13 12 12 11 11 12 13 13 13 14 16 16 16 16 17 17 18 18 18 18 17 17 17 16 16 16 16 18 18 17 18 18 17 17 19 22 24 27 28 29 29 28 28 28 28 26 26 25 25 25 26 28 29 29 30 31 31 31 30 29 27 26 27 27 27 28 28 28 29 29 29 29
19 19 17 17 16 15 15 15 16 17 16 15 14 13 12 12 11 11 12 13 13 13 14 15 15 16 17 17 17 17 17 17 17 17 17 17 16 15 16 17 18 18 18 18 18 17 17 21 25 25 27 29 29 29 29 27 26 25 25 24 23 25 27 28 28 28 29 30 30 30 30 29 29 28 26 26 27 27 27 26 27 28 28 27 28
19 18 17 17 16 16 15 16 17 17 16 14 14 12 12 12 11 11 12 13 13 12 14 15 15 16 17 18 17 17 17 17 17 17 17 17 16 16 17 18 18 18 19 18 18 17 19 23 27 27 27 29 29 28 28 27 25 24 23 23 23 25 27 28 28 29 30 31 31 30 30 29 29 28 26 25 26 26 26 27 28 29 28 28 27
20 17 16 16 16 16 16 16 17 17 15 14 13 12 12 12 10 10 11 12 12 12 14 15 16 16 17 17 17 17 17 17 17 17 17 16 17 17 17 17 18 18 18 18 17 17 19 24 27 27 28 29 28 27 26 25 25 25 24 25 25 25 25 26 26 28 29 30 30 29 29 28 28 27 26 26 27 27 28 29 29 29 28 27 26
19 17 16 15 17 17 16 17 17 16 14 13 13 12 13 12 10 10 11 11 11 12 14 15 15 16 17 17 17 17 17 17 18 17 17 16 16 16 16 17 18 18 17 16 14 15 19 23 25 27 28 28 27 26 25 24 25 24 24 24 25 24 24 24 25 26 27 28 27 26 27 28 29 28 27 28 28 27 29 28 28 27 26 26 26
18 17 16 16 17 16 17 17 16 15 14 13 12 12 13 12 11 10 11 11 10 11 13 14 15 15 16 17 16 16 17 17 18 17 16 16 16 16 16 16 18 17 16 14 13 15 19 22 23 25 27 27 26 24 25 25 23 21 20 21 21 21 22 23 25 25 25 25 26 26 27 27 28 27 27 27 26 27 27 27 26 26 25 25 25
18 16 17 17 17 16 16 16 15 15 13 13 12 12 13 12 11 10 10 10 10 11 12 13 14 15 16 16 16 16 16 17 17 17 15 16 16 15 15 15 16 15 14 13 13 16 20 22 21 25 27 26 24 23 23 22 21 19 19 20 19 19 20 22 24 24 24 25 26 27 27 26 26 25 25 24 24 24 25 25 24 25 26 26 25
19 16 18 18 18 17 15 15 15 14 13 12 12 12 13 13 12 11 10 9 9 10 12 13 14 15 15 16 16 16 16 16 17 16 16 16 16 14 14 14 14 14 14 12 14 16 20 21 21 25 26 25 24 23 22 20 18 18 18 19 20 20 20 22 23 24 25 26 27 26 26 26 24 23 23 23 22 22 23 23 23 23 24 25 25
19 17 17 20 19 17 16 15 15 14 13 12 12 12 14 14 12 11 10 9 8 9 10 11 13 14 14 15 16 16 16 16 16 15 15 16 15 14 13 14 14 14 13 12 14 16 19 20 21 25 25 24 23 23 22 20 19 19 19 20 21 22 23 24 24 25 26 26 26 25 25 24 23 22 22 21 21 22 22 22 21 21 22 23 24
18 16 17 20 20 18 17 16 15 15 14 13 12 13 15 14 13 12 10 9 8 8 9 10 12 13 14 15 15 16 16 16 16 15 15 15 14 14 13 13 13 13 12 12 14 17 19 19 21 24 24 22 21 21 21 21 21 20 20 21 22 23 24 25 25 26 25 25 25 25 24 23 22 22 21 20 20 21 21 21 20 20 21 23 25
17 15 16 21 20 19 18 17 17 16 15 13 13 14 16 15 14 13 11 10 8 8 9 9 11 13 14 14 15 15 16 17 16 15 15 14 14 14 13 13 12 12 12 13 15 17 18 19 22 24 23 21 20 20 21 22 22 20 19 20 21 22 23 25 26 26 25 25 25 24 24 23 21 21 20 20 20 20 20 21 21 21 23 25 26
17 14 17 21 21 20 19 18 17 17 15 14 14 15 17 15 14 13 12 11 9 9 9 9 10 12 13 13 14 14 15 16 16 15 15 15 14 14 14 13 12 13 14 14 16 17 17 20 23 23 21 20 20 20 20 21 21 20 18 18 19 20 21 22 25 25 25 25 25 24 24 23 22 20 20 20 21 23 22 22 23 24 25 25 25
16 14 17 21 21 20 19 18 17 17 16 14 15 16 17 15 14 13 13 12 10 9 9 9 9 10 12 12 13 13 13 14 15 15 14 15 15 15 14 14 14 14 15 15 16 17 18 22 22 21 20 20 20 20 20 20 20 20 20 20 21 22 21 21 23 23 23 23 24 24 22 21 22 20 21 22 23 24 24 24 24 24 24 23 23
17 14 16 19 20 20 20 18 17 18 17 15 15 17 17 15 14 14 13 13 12 10 10 9 9 10 11 11 12 12 12 12 13 13 13 14 15 16 14 14 15 14 14 15 16 16 18 22 20 19 20 20 20 20 19 19 19 19 20 21 22 23 22 22 24 23 22 22 22 22 19 18 20 20 21 23 23 24 24 24 23 23 23 22 22
17 15 16 18 19 20 20 19 18 18 17 17 16 17 18 16 15 14 14 14 12 11 10 10 9 9 10 11 11 11 12 12 12 12 13 14 14 15 15 15 14 14 14 15 16 15 18 20 19 19 20 21 21 19 18 18 18 18 19 20 20 21 22 22 22 22 22 21 21 20 18 19 21 21 22 23 22 23 24 23 23 22 22 21 22
19 17 17 17 18 20 21 20 19 19 18 18 17 18 18 17 15 15 14 14 13 12 11 10 10 9 10 10 11 11 11 11 12 12 13 13 14 14 15 15 14 14 14 15 15 15 18 19 19 20 21 21 19 18 18 18 18 18 19 19 20 21 23 22 22 22 21 20 19 19 19 20 22 23 24 22 22 22 22 21 21 20 20 20 22
22 19 19 18 18 19 20 21 21 20 19 19 19 18 19 19 17 16 16 15 14 13 12 12 11 10 10 10 11 11 11 11 12 12 12 12 13 14 14 14 14 14 14 15 15 15 17 17 18 21 20 19 18 18 17 17 16 16 17 19 21 22 23 23 23 23 22 20 19 20 22 23 24 25 23 21 22 21 21 20 19 19 18 20 21
24 23 23 21 19 19 19 21 21 21 20 20 20 20 20 20 19 19 18 17 16 15 14 14 12 12 11 11 11 11 12 11 12 12 12 12 12 12 13 13 14 14 14 15 15 16 17 16 18 20 19 18 17 17 16 16 15 15 16 19 22 23 22 22 23 23 22 21 20 21 22 23 23 23 22 21 20 20 20 19 19 19 19 21 21
26 25 24 24 22 21 20 20 21 21 21 22 21 21 22 22 21 21 20 19 18 17 16 15 14 13 12 12 12 12 12 12 12 12 12 12 12 12 12 13 14 15 15 16 17 18 17 16 17 18 18 17 17 17 16 15 15 16 18 20 21 21 22 22 22 22 22 21 20 19 20 21 21 21 20 20 19 19 20 19 19 20 20 20 20
26 25 23 25 24 23 22 21 20 21 22 23 23 23 23 24 23 23 22 21 20 19 18 17 16 15 14 13 12 12 12 12 12 12 12 12 12 12 12 13 14 14 15 17 20 19 17 17 18 18 17 16 17 17 16 16 16 16 17 19 20 21 22 22 22 21 21 21 20 18 18 20 21 21 20 18 18 19 19 19 20 19 18 18 19
24 26 25 25 24 24 23 22 21 21 22 23 24 24 24 25 25 25 24 24 23 22 20 20 18 17 16 15 13 12 12 12 13 13 13 13 13 13 13 13 13 13 14 18 20 19 18 19 18 17 16 16 16 17 17 17 17 16 17 18 20 21 22 21 21 21 21 21 20 19 20 21 21 19 18 18 18 18 18 19 20 18 17 17 17
24 27 27 25 25 25 24 23 23 23 23 23 23 24 24 25 26 26 26 26 25 24 23 22 20 19 19 17 16 15 14 14 15 15 14 14 14 14 14 14 14 13 14 17 20 20 20 19 17 16 15 14 16 17 17 17 17 17 17 18 20 21 21 21 21 21 21 22 21 20 20 19 18 18 18 18 18 17 17 18 18 17 16 16 16
26 26 28 27 27 26 26 25 24 24 24 24 24 24 24 25 26 26 27 27 26 26 25 24 22 22 21 20 19 19 17 15 16 16 16 16 16 16 15 15 15 15 16 18 21 21 20 18 17 16 15 14 15 16 17 17 17 17 18 20 20 21 21 21 21 21 22 23 22 20 18 16 17 19 18 17 16 16 17 18 17 16 15 15 15
28 28 29 29 29 29 28 27 26 26 26 26 25 24 24 25 26 27 27 28 28 27 27 25 24 24 24 22 22 22 20 18 17 17 17 17 17 17 17 17 17 17 18 20 22 22 20 18 17 16 16 15 15 16 18 18 17 17 20 21 21 21 21 21 22 22 22 22 22 21 19 18 18 17 17 16 16 15 16 17 16 15 15 15 15
31 30 31 32 31 30 31 30 28 27 27 27 27 25 25 26 27 27 27 29 29 28 28 28 26 26 27 26 24 24 23 21 19 19 19 19 19 18 18 18 18 19 20 22 22 21 19 18 18 17 17 16 16 16 18 18 18 18 20 22 21 21 21 22 22 21 21 21 22 21 20 20 19 17 15 15 14 14 14 15 14 14 14 14 14
31 32 33 34 33 32 32 32 30 29 28 28 28 27 26 26 27 27 28 29 29 29 29 30 28 27 29 28 26 26 24 23 21 20 20 21 20 19 19 19 20 20 21 23 22 20 19 18 18 18 18 18 17 17 17 18 19 20 21 21 21 21 21 21 22 21 20 21 21 21 21 21 21 20 18 14 14 14 13 14 14 13 13 13 13
32 34 34 34 34 34 33 34 33 31 30 30 29 28 26 25 26 27 28 29 29 29 30 31 31 30 29 29 29 28 26 25 23 22 21 22 22 20 19 20 22 22 22 23 21 19 18 17 18 19 19 19 18 18 17 17 19 20 21 21 21 21 21 21 20 20 20 20 20 21 21 22 21 21 20 17 14 13 12 13 13 12 12 12 12
34 34 33 34 34 34 33 34 35 35 33 32 31 30 28 26 25 26 26 27 28 29 31 31 32 32 30 30 31 30 28 27 25 23 23 23 22 22 21 21 22 23 23 23 21 19 19 19 19 20 20 20 20 19 19 18 19 20 21 21 21 21 20 20 20 20 19 20 20 20 20 20 18 17 18 17 15 13 11 11 11 11 11 10 10
34 33 34 34 34 34 33 32 34 37 37 35 34 33 31 29 27 26 26 26 28 29 30 31 32 33 33 32 32 32 31 29 27 25 25 25 24 24 24 23 23 22 22 23 23 21 22 22 23 22 22 22 21 21 20 20 19 20 20 20 21 21 20 20 19 19 19 19 19 19 18 16 14 13 16 17 17 15 12 11 10 10 10 10 9
34 34 35 35 35 34 33 32 32 35 38 37 36 35 33 32 30 28 27 27 27 28 29 30 30 32 33 34 33 33 32 30 29 28 28 27 27 28 27 24 23 23 23 25 25 24 24 25 25 25 23 22 22 22 21 21 20 20 20 20 20 21 20 20 20 19 19 19 18 17 15 13 12 13 15 16 17 17 16 13 11 10 10 9 9
36 36 35 34 35 34 34 33 31 34 36 35 35 35 34 33 32 30 29 28 28 28 29 29 30 31 33 34 34 34 33 32 31 30 30 30 30 31 29 26 25 25 25 27 27 26 26 26 26 26 25 23 23 22 22 21 21 21 20 19 20 20 21 20 20 19 18 18 17 16 14 13 13 13 14 15 16 17 17 17 15 13 11 9 9
38 38 36 35 36 35 34 34 33 35 36 35 34 34 33 33 33 31 29 29 29 28 28 29 30 31 33 33 34 35 34 33 33 32 32 33 33 32 31 29 27 27 27 29 29 28 29 29 27 26 26 25 24 23 22 21 21 21 20 19 19 19 20 20 19 19 18 18 17 16 15 14 14 15 14 14 15 15 16 18 18 17 14 11 9
38 39 38 37 37 36 36 35 35 35 35 36 35 34 33 33 33 31 29 29 29 29 28 29 31 32 33 33 34 35 35 35 34 33 34 34 34 34 33 32 30 29 29 31 31 30 30 30 29 26 26 26 26 25 24 22 22 22 21 19 18 17 17 18 19 18 18 17 16 15 15 15 15 15 15 14 14 15 15 17 17 18 17 14 10
37 38 38 38 37 37 37 37 37 37 37 36 34 34 33 32 33 31 28 28 29 29 29 29 31 33 34 34 34 35 36 35 35 35 35 35 35 36 36 35 33 32 32 33 33 32 31 31 30 28 27 26 27 28 27 24 22 21 21 19 17 17 16 15 15 16 16 16 15 15 15 15 15 15 15 15 15 15 16 15 14 14 13 12 12
36 37 38 37 37 37 38 38 39 39 39 37 35 34 34 33 33 32 30 30 30 30 30 29 31 34 36 35 35 35 36 35 35 35 35 36 37 37 37 37 36 35 35 35 35 35 35 34 32 32 30 27 26 28 28 27 24 20 18 18 16 15 14 13 12 13 14 15 15 15 16 16 15 15 15 15 16 16 16 15 14 13 11 8 9
34 36 37 37 38 38 38 39 40 39 39 40 39 37 37 36 35 36 35 33 32 31 31 30 30 34 35 35 35 35 35 35 36 36 35 36 37 37 38 38 38 37 37 38 39 38 37 37 35 33 32 30 29 29 29 29 26 19 16 14 13 12 12 12 12 11 12 14 14 15 17 17 16 16 16 15 15 15 15 15 14 13 11 9 8
35 37 38 39 39 38 38 39 39 39 40 42 42 41 41 41 40 40 39 35 34 33 33 33 32 33 34 33 33 33 32 33 34 35 36 36 36 37 39 39 39 39 40 39 39 39 39 38 37 34 31 31 31 31 32 30 23 19 18 13 8 7 9 9 10 11 12 13 13 15 16 17 16 17 17 16 15 15 15 15 14 13 12 10 10
36 36 37 37 37 37 38 38 38 40 41 41 43 43 43 42 40 38 37 35 33 33 33 33 32 32 33 33 32 32 31 32 33 35 37 37 37 38 40 41 41 41 41 40 38 39 38 38 39 37 33 29 28 31 36 31 21 19 18 10 4 5 4 8 11 12 14 14 14 15 16 16 17 17 17 17 16 16 15 14 13 13 12 11 11
32 33 34 34 35 37 37 38 38 39 40 40 41 41 40 38 36 33 33 32 31 30 30 30 32 33 33 33 34 34 33 33 34 35 38 39 40 40 40 41 41 41 43 42 40 40 39 39 39 38 36 31 28 31 37 34 27 22 14 5 3 4 3 8 13 13 14 14 14 15 15 16 17 18 18 17 17 17 16 15 14 13 13 12 11
31 33 35 36 36 37 37 37 37 37 38 38 38 38 35 33 32 29 27 28 28 27 28 30 32 33 35 36 36 37 36 35 35 36 37 37 38 39 40 40 39 41 43 42 41 41 41 42 41 40 39 37 34 34 37 36 33 30 20 9 6 3 2 9 13 11 14 16 15 16 16 17 18 19 19 19 19 18 17 16 15 14 14 13 11
32 34 35 36 35 35 35 35 35 36 36 36 36 36 34 33 32 30 28 28 28 30 33 35 35 36 37 37 37 36 36 34 34 35 37 38 38 38 38 39 39 41 43 42 41 41 43 44 43 42 41 41 38 35 36 39 36 33 28 17 11 8 7 14 10 3 10 15 16 17 17 18 19 19 20 20 20 20 18 17 16 15 14 13 12
31 32 32 33 33 32 33 34 34 35 35 35 35 35 35 34 34 34 33 32 32 33 36 35 35 36 36 35 35 35 35 34 33 33 37 40 40 39 40 41 42 43 43 43 41 42 44 44 44 44 43 41 40 36 36 39 36 34 32 21 13 12 13 17 11 4 5 10 15 18 18 18 19 20 21 21 21 21 19 18 17 17 15 14 13
28 29 29 30 31 30 31 32 33 33 34 34 35 35 36 35 35 34 33 34 33 33 32 31 32 33 33 33 33 34 34 34 34 33 36 41 42 40 41 42 43 44 44 43 41 41 43 43 43 44 43 42 42 41 40 40 38 37 35 25 14 12 16 19 19 14 7 3 9 14 17 19 20 21 22 22 23 21 20 19 19 18 17 16 15
25 26 27 28 28 29 29 30 31 32 32 33 34 34 35 35 35 35 34 35 33 31 30 29 29 30 31 32 33 34 34 34 36 35 34 39 43 41 42 44 45 46 44 40 39 41 43 44 44 44 43 44 44 42 40 42 43 39 35 30 19 12 15 14 18 19 9 4 6 8 14 17 17 22 24 23 23 22 20 20 20 19 18 17 16
23 24 25 25 26 27 28 29 30 31 31 32 33 34 35 35 36 36 36 35 33 31 28 27 28 29 30 31 32 33 34 33 35 37 35 36 40 40 41 44 45 44 42 39 39 42 44 44 45 46 46 46 45 43 41 40 42 40 35 34 27 19 16 12 16 20 11 6 6 8 17 20 16 21 25 25 24 22 21 21 21 20 20 19 17
20 21 22 23 25 26 28 28 29 30 30 31 32 33 35 36 37 37 37 35 34 32 30 29 29 29 31 32 32 32 33 32 33 37 38 36 38 40 41 43 43 42 42 41 40 42 43 44 45 45 45 45 44 43 41 38 39 40 35 34 34 30 26 21 23 27 17 9 7 8 18 23 19 20 24 27 25 23 22 22 22 22 21 20 19
Wind_Direction
165 155 150 144 137 134 135 134 127 119 115 111 106 99 94 90 87 81 74 72 70 69 62 67 75 80 83 83 85 86 87 87 87 88 86 85 85 85 84 81 81 84 86 85 84 85 87 84 82 83 82 83 84 84 85 85 84 82 81 80 80 81 81 81 81 82 82 81 80 78 78 77 76 76 76 77 76 75 73 71 70 69 67 67 67
161 157 152 147 142 135 137 135 130 124 118 115 108 102 97 93 89 81 75 76 75 72 65 69 76 80 86 87 87 89 88 89 89 90 89 88 88 88 89 87 83 84 85 82 80 82 84 84 86 88 86 86 87 88 87 85 85 84 82 82 82 82 80 81 83 83 84 84 82 81 80 79 79 79 78 76 75 76 75 72 70 69 68 68 67
155 157 152 149 144 137 139 136 132 128 122 118 111 104 98 95 89 83 78 78 78 77 71 71 79 82 88 90 89 90 90 91 91 91 91 90 92 94 97 95 89 83 82 82 81 83 85 87 90 92 92 91 91 92 91 89 89 88 86 85 85 85 84 85 86 85 85 85 85 84 82 81 80 79 78 77 76 78 78 77 75 73 71 70 69
156 155 151 150 146 142 144 142 136 131 126 121 113 106 101 98 91 86 82 80 79 80 78 76 81 83 87 92 91 91 92 93 93 92 92 92 92 91 91 91 87 83 81 79 79 82 85 89 95 95 95 96 95 95 93 92 91 89 90 88 86 86 88 89 88 88 86 85 85 84 83 82 80 79 80 78 76 77 78 77 76 75 75 74 73
156 154 154 150 146 147 146 144 138 134 129 123 115 109 107 101 94 89 85 82 79 77 78 81 84 85 87 91 93 93 93 93 94 93 93 94 94 92 90 91 89 85 81 79 78 80 82 87 96 98 99 99 97 95 93 93 90 87 89 89 86 84 89 91 89 89 87 86 86 84 84 82 81 80 80 79 77 77 79 77 75 76 76 75 74
157 155 155 149 145 145 142 140 135 134 132 125 117 113 112 104 100 94 88 84 81 76 76 83 87 89 91 92 95 95 96 95 96 95 95 95 97 99 93 89 88 84 81 83 84 83 85 89 94 99 103 103 97 94 93 93 91 88 89 90 86 81 86 91 89 89 89 90 89 87 86 85 83 82 81 80 79 80 80 78 77 78 76 76 76
157 156 155 149 145 142 140 139 135 135 131 126 120 117 115 111 108 100 94 88 84 78 76 84 87 91 93 94 95 96 98 98 98 98 98 98 97 98 93 88 85 84 84 86 87 85 88 94 98 102 105 103 98 96 95 95 95 93 91 89 85 82 86 90 89 88 90 90 90 89 88 87 85 83 82 82 82 82 82 82 83 82 80 79 79
156 158 155 148 145 143 141 139 137 136 132 127 125 123 121 118 115 107 99 92 87 80 78 83 87 91 94 95 96 97 99 100 101 100 101 101 97 95 93 89 86 86 89 90 89 89 91 98 103 105 106 104 101 98 97 97 96 94 93 89 88 87 89 90 89 89 89 90 90 90 90 89 87 87 86 88 89 87 87 88 87 85 83 80 77
156 159 155 151 147 145 143 140 137 135 134 131 130 128 126 125 120 114 103 95 92 86 82 84 89 94 97 97 97 99 100 101 102 103 103 102 98 94 92 90 90 90 92 94 93 91 93 102 107 108 107 106 102 98 99 101 99 97 97 96 96 96 96 95 94 93 93 94 93 93 95 96 94 92 91 93 94 92 90 88 86 84 83 81 78
158 160 160 157 151 147 144 141 139 137 138 136 135 133 131 130 125 120 109 100 96 88 85 84 88 95 100 101 100 101 102 104 104 105 105 103 100 97 96 98 98 96 95 95 93 90 96 106 110 110 109 106 102 98 100 106 105 103 103 103 103 103 103 103 101 99 99 100 98 97 99 99 96 94 93 94 93 90 87 86 84 82 82 82 82
160 161 163 162 156 151 147 145 142 141 142 140 140 138 135 134 128 123 116 107 102 95 89 86 88 95 101 103 103 104 104 106 106 107 107 104 101 102 104 105 101 99 98 96 94 92 100 107 109 111 111 107 103 100 103 106 104 105 108 109 108 108 107 107 107 105 104 102 101 100 99 97 97 96 94 94 92 88 86 85 84 84 84 83 83
163 162 165 167 162 157 154 149 146 145 146 146 145 144 141 138 131 127 123 114 109 103 97 91 90 98 104 106 107 107 108 108 109 108 109 107 105 106 105 103 101 99 99 100 98 96 104 108 109 113 114 109 105 103 105 106 103 104 109 112 112 112 110 109 110 109 106 103 102 101 100 98 97 97 95 94 92 90 87 86 85 85 86 84 83
163 162 166 169 166 163 161 157 154 153 153 152 151 151 148 144 137 132 131 123 114 105 100 96 94 98 104 109 111 110 111 111 112 112 113 112 108 109 108 104 103 102 102 104 103 100 106 108 110 115 114 111 106 104 106 105 105 106 108 111 111 112 112 111 111 110 107 104 103 102 101 98 97 98 96 95 93 92 89 88 89 88 86 83 81
164 162 167 172 169 167 166 164 163 160 159 155 156 156 153 149 142 139 137 131 120 108 103 99 97 99 104 110 114 114 114 114 114 114 116 115 111 111 112 109 105 105 106 107 106 103 104 106 113 117 115 112 108 105 104 104 105 105 108 110 110 111 112 111 109 108 105 103 103 102 101 100 100 98 96 95 93 91 89 89 91 90 87 82 78
169 166 170 174 172 170 169 169 168 165 163 158 158 158 157 154 147 145 142 138 130 118 112 106 104 105 108 112 117 120 120 119 117 117 118 119 117 114 112 111 108 108 109 109 107 105 104 108 115 118 117 114 108 104 103 106 106 106 108 109 109 110 109 108 107 104 103 103 102 101 100 99 99 98 96 94 92 90 88 87 88 87 85 82 79
173 171 174 176 174 174 172 171 170 168 166 162 159 158 162 160 152 152 149 146 142 132 124 117 113 112 114 116 120 123 124 124 121 120 121 120 119 118 116 115 113 111 110 111 111 108 107 113 120 120 117 113 107 104 105 109 109 107 107 106 105 106 106 104 103 101 100 100 100 99 98 97 97 96 92 89 88 89 88 87 85 83 83 83 81
174 173 175 178 178 177 175 173 171 169 169 166 161 160 166 164 158 159 156 156 154 144 136 131 125 120 120 119 120 122 126 128 127 127 127 125 123 122 121 119 117 114 112 111 115 113 112 121 125 122 117 113 110 108 108 110 110 108 109 108 106 109 110 105 102 102 100 99 99 98 96 94 93 92 91 90 88 87 88 87 84 83 83 84 84
172 174 176 180 180 180 180 176 174 172 171 169 164 165 168 166 163 165 164 164 163 157 149 145 138 130 126 123 121 121 125 130 134 136 137 136 134 132 128 125 119 117 119 116 120 118 119 128 127 122 120 116 115 114 113 113 112 111 111 113 112 114 115 108 104 103 103 104 102 99 96 94 91 91 94 93 88 86 87 87 86 86 84 84 85
172 177 177 182 184 184 183 181 179 175 174 174 170 169 170 171 170 170 171 171 170 166 160 155 148 141 134 130 126 124 127 130 135 138 141 143 143 141 136 131 123 122 128 123 122 121 124 132 129 125 125 122 121 118 115 116 116 114 112 113 113 114 114 109 106 105 104 105 104 100 97 96 97 99 97 91 87 89 89 88 88 87 85 84 84
174 181 178 181 188 189 187 185 183 179 179 179 177 174 173 175 176 176 176 177 178 174 166 159 156 151 144 139 134 130 131 132 135 137 141 147 148 146 142 137 129 129 135 128 122 121 126 133 129 127 128 125 123 118 114 116 120 122 120 120 119 117 116 114 112 109 107 108 111 109 105 107 107 103 94 89 89 91 90 89 89 88 87 85 82
175 182 181 180 187 192 191 190 188 184 184 184 182 180 177 178 181 180 179 182 185 182 173 165 164 160 154 150 145 141 138 137 138 140 143 148 150 151 148 142 135 137 140 133 124 123 130 131 127 128 128 125 122 118 115 118 122 126 127 127 125 121 119 118 116 113 113 114 117 121 120 114 106 98 93 92 94 93 91 91 89 88 87 83 80
175 180 183 185 186 191 192 193 192 188 187 187 186 185 183 182 184 184 184 188 190 187 181 175 174 169 163 160 156 152 146 144 145 145 147 149 152 156 153 146 144 143 141 136 128 127 134 134 132 133 128 124 124 121 120 120 123 129 131 131 128 124 121 119 118 115 113 111 115 119 116 108 101 99 98 97 96 93 90 90 88 86 85 81 79
177 180 184 189 192 193 193 196 196 192 190 191 191 190 189 187 188 189 188 191 193 191 187 183 182 177 171 168 166 161 155 153 154 153 152 153 157 161 160 153 150 147 142 138 132 132 140 141 139 140 134 128 127 125 127 126 126 131 133 133 131 127 125 122 120 117 112 111 112 111 109 106 104 103 100 96 95 92 90 91 90 87 82 79 81
181 182 185 191 197 198 196 197 198 196 194 194 194 194 193 192 191 192 193 195 195 195 192 188 186 181 176 176 173 167 164 163 162 163 161 160 161 164 166 160 156 154 149 143 138 141 146 146 146 150 147 136 128 128 132 132 133 134 132 134 135 133 130 127 124 122 118 115 111 107 106 105 105 105 101 98 98 96 94 94 92 87 81 79 83
186 186 187 191 198 200 199 198 198 199 197 197 197 196 197 196 194 195 196 198 198 197 194 192 189 182 177 181 180 173 173 172 170 172 169 166 165 166 169 167 164 160 158 150 145 148 150 149 150 153 156 148 134 130 135 136 136 137 136 136 138 137 134 130 129 128 125 118 112 110 109 106 105 105 104 103 102 98 96 94 91 86 84 84 84
191 192 191 192 197 201 202 198 196 199 198 199 199 198 200 199 198 198 197 200 201 199 195 193 190 182 178 182 185 181 181 181 179 178 176 174 169 169 170 171 170 166 164 156 149 152 154 152 153 154 159 159 147 138 138 139 139 141 141 140 139 138 137 136 134 131 127 122 119 119 117 111 107 105 106 108 106 102 101 96 90 88 88 87 86
194 197 196 195 196 198 201 199 197 198 199 200 200 200 202 203 202 200 199 200 202 200 197 196 193 184 179 186 193 192 189 188 186 183 182 181 175 173 173 173 173 170 169 161 155 158 159 157 159 161 163 166 161 152 146 144 146 149 147 144 142 140 140 140 138 132 129 125 122 122 117 108 107 109 109 110 107 105 105 99 92 91 91 89 88
197 198 199 198 197 196 197 198 199 199 199 200 201 202 203 203 204 202 201 202 203 203 201 198 195 187 183 191 198 198 197 193 191 188 186 185 181 177 175 176 176 173 171 168 164 163 164 165 166 169 170 172 170 164 157 151 152 156 154 149 145 143 142 140 139 135 130 126 124 123 117 109 113 116 111 110 108 106 105 101 96 95 95 93 90
201 201 200 201 200 199 199 199 199 199 199 201 201 202 202 201 203 203 203 203 204 206 205 201 197 190 188 193 197 200 200 198 195 191 189 187 184 181 179 179 179 176 175 173 171 169 171 173 174 176 177 177 174 171 167 159 156 159 158 152 147 145 143 141 140 138 135 132 131 131 127 121 119 116 112 112 109 108 106 101 98 100 98 96 93
204 205 203 204 204 203 203 201 200 198 198 200 201 200 200 200 203 204 204 205 205 207 207 204 201 195 193 196 199 201 202 202 200 194 191 189 186 184 184 182 182 181 179 176 176 177 179 180 182 182 181 179 175 174 172 166 162 162 161 156 151 147 146 144 143 143 141 139 138 136 134 129 124 118 117 117 114 112 109 103 102 103 101 99 97
206 206 207 208 207 207 207 204 202 200 198 200 200 199 201 202 204 205 205 207 206 208 208 207 205 201 198 200 202 204 204 205 203 197 192 191 190 187 187 187 185 185 182 178 179 184 188 188 189 187 184 180 175 174 175 170 165 164 164 161 155 151 149 148 147 147 146 143 142 140 138 134 131 125 121 120 121 120 115 111 110 108 104 102 99
207 208 209 209 209 210 210 209 206 203 201 200 199 198 201 204 205 206 206 208 208 209 210 209 209 207 205 204 204 205 205 206 205 201 193 193 196 191 190 192 189 187 184 182 183 190 195 195 193 189 185 181 174 173 175 174 168 166 168 165 162 158 155 154 153 151 150 148 146 145 143 140 137 131 126 121 117 118 119 118 115 112 109 106 103
209 210 210 210 211 212 212 212 210 208 206 204 202 201 202 205 207 209 208 208 209 211 212 211 211 211 209 207 207 206 205 206 206 203 197 196 200 196 194 197 194 190 188 187 189 195 198 194 190 187 184 181 176 172 174 174 171 170 171 170 168 166 162 160 158 157 155 152 151 151 149 147 144 140 137 130 121 119 122 123 121 118 115 111 107
210 209 209 211 213 213 212 212 211 212 211 210 209 209 208 209 211 212 211 210 210 211 213 214 214 213 212 211 211 209 207 206 205 204 200 198 201 199 198 200 198 195 192 192 193 197 199 193 187 186 184 183 180 176 176 174 172 173 173 174 174 172 170 167 165 164 161 158 157 157 155 154 151 146 146 140 132 128 126 125 125 125 123 119 113
209 208 209 211 212 213 212 211 212 213 212 212 213 214 212 210 212 213 212 211 211 212 214 215 216 216 215 215 214 211 209 207 206 204 202 200 201 200 201 202 199 197 197 196 197 198 198 193 189 187 184 184 182 179 180 177 174 176 175 177 178 177 177 176 174 172 170 168 166 165 164 163 159 154 153 147 142 138 135 132 130 130 128 124 118
209 209 210 209 209 212 212 211 212 211 210 210 211 212 210 208 211 213 213 213 213 215 215 216 217 217 217 217 216 214 213 210 207 206 203 202 202 202 202 203 199 198 199 198 199 200 197 193 192 192 186 182 181 177 178 179 175 175 176 178 180 181 182 183 183 181 179 179 179 179 175 170 166 161 159 156 152 149 145 143 141 139 133 128 126
211 211 210 207 207 210 211 212 211 208 208 208 208 209 208 208 210 212 214 215 217 218 217 218 219 218 217 217 217 216 215 213 210 209 207 204 204 204 203 201 200 200 201 200 201 201 198 194 192 194 192 184 180 176 174 176 175 174 176 178 179 182 186 188 190 190 189 189 189 188 183 177 173 168 168 166 163 162 158 153 150 146 138 129 125
213 212 212 211 209 209 210 212 209 206 205 205 206 207 206 208 210 211 215 217 218 220 220 220 221 219 217 216 216 216 215 215 214 213 210 208 206 206 204 201 201 201 201 201 201 201 201 198 192 191 194 191 186 181 178 176 174 173 173 176 179 180 185 188 191 193 193 194 195 194 190 186 184 181 179 176 172 169 166 162 160 156 144 132 127
214 213 213 214 212 210 210 210 208 205 204 204 204 205 206 208 210 212 217 219 220 222 224 224 222 221 219 218 217 216 215 215 216 215 213 211 208 206 205 202 201 202 202 201 200 200 199 199 196 191 192 194 192 186 181 176 172 170 168 170 177 182 183 187 191 195 197 198 200 200 198 194 192 192 190 186 181 178 177 175 175 174 166 152 148
214 213 212 212 211 211 210 210 211 209 207 206 206 206 207 209 210 211 215 219 221 222 225 227 223 221 221 221 219 217 216 217 218 216 213 213 210 208 206 203 202 203 201 200 201 202 201 200 199 195 191 187 187 186 183 177 167 158 157 161 169 180 185 188 194 199 201 202 203 203 202 198 195 195 196 195 192 190 189 190 189 190 190 181 168
211 211 210 210 211 211 210 211 212 211 209 208 207 207 207 207 208 210 213 217 220 221 223 225 222 220 220 219 218 215 214 216 217 216 215 214 212 209 207 205 204 204 205 206 206 206 205 202 199 196 192 186 183 186 184 176 162 148 144 149 158 172 183 192 197 202 205 205 204 204 203 201 200 200 200 200 199 199 197 197 196 196 195 189 177
208 209 209 210 211 210 211 212 212 210 210 210 209 208 209 209 209 211 213 215 218 219 219 220 219 218 218 218 217 216 216 218 219 219 219 218 215 211 209 208 207 208 209 208 207 205 203 201 196 191 190 190 187 185 182 176 168 159 151 141 140 165 184 198 202 206 210 209 207 207 207 205 204 204 203 204 204 205 204 204 201 199 198 193 187
208 208 210 211 209 209 211 213 211 210 211 211 211 211 212 212 213 214 215 214 216 219 219 219 218 219 220 221 221 220 219 220 221 222 223 223 221 216 212 210 210 211 210 206 204 203 201 199 197 192 188 189 189 187 186 185 179 163 150 143 157 159 188 212 209 211 212 211 211 211 210 208 207 205 205 206 208 209 209 210 206 203 203 201 199
207 207 208 209 209 210 212 213 212 212 211 212 213 214 213 213 215 216 216 214 215 217 218 219 219 219 221 222 223 222 219 218 219 219 219 220 220 218 214 211 211 213 210 206 205 204 202 200 199 197 190 185 185 190 193 193 189 175 152 112 143 154 229 207 192 202 209 209 212 213 210 209 208 207 206 207 210 212 212 212 211 209 209 207 207
206 207 208 210 211 212 213 214 214 214 212 213 213 213 212 211 211 212 213 214 214 215 215 217 218 218 220 222 223 225 224 223 223 222 222 221 218 217 216 214 215 215 210 207 208 207 207 206 203 201 197 194 191 192 196 198 201 195 179 149 145 178 244 172 168 193 206 207 213 214 213 213 213 211 209 210 211 212 212 213 214 212 212 213 214
208 210 211 212 214 214 215 215 216 216 215 215 214 213 213 211 208 206 207 208 210 212 213 214 214 216 219 222 223 226 228 227 227 228 230 230 227 223 221 221 221 218 212 210 212 211 209 207 205 203 204 204 199 195 197 201 207 207 198 191 198 215 183 152 148 182 201 208 217 216 217 217 218 217 213 213 214 213 212 213 215 216 216 217 219
210 212 214 215 216 217 217 217 218 219 218 217 216 215 214 213 211 209 208 208 209 213 215 217 218 218 221 222 224 226 227 227 228 230 231 230 231 228 226 225 223 220 214 212 214 214 211 209 209 210 209 208 203 199 201 201 205 212 212 214 227 230 198 173 167 150 167 209 217 214 218 218 219 221 218 217 217 215 213 213 215 218 219 222 225
213 213 214 216 218 219 219 219 220 220 220 219 217 216 215 214 213 212 213 214 216 218 218 219 221 223 224 225 226 227 228 228 227 227 226 224 225 227 226 224 221 219 216 215 217 218 215 213 213 213 211 209 207 207 207 201 202 209 212 219 240 232 202 193 191 179 148 175 203 208 215 216 219 221 220 222 222 219 216 215 216 219 222 225 227
216 216 218 219 220 220 220 220 220 221 220 219 217 217 217 216 215 214 216 218 221 223 222 223 223 225 226 227 229 230 231 231 226 223 222 218 217 220 222 221 218 216 215 216 221 221 218 216 214 212 212 212 211 212 211 204 203 206 207 212 224 212 191 195 196 188 169 149 178 197 199 201 216 221 220 223 226 225 221 219 220 221 224 228 230
219 221 221 221 220 219 218 218 219 219 219 218 217 217 217 217 217 217 218 220 221 223 225 226 226 227 229 229 230 232 234 234 226 222 222 217 214 217 220 219 217 216 216 219 221 220 218 218 218 217 215 214 212 212 213 211 209 210 209 207 207 195 184 185 192 190 182 165 170 186 186 186 201 214 217 220 223 225 222 220 221 223 225 229 232
217 220 220 220 218 216 216 216 218 218 217 217 217 217 217 217 219 219 220 221 221 222 223 225 226 226 228 230 232 234 236 236 229 222 223 220 217 219 221 220 219 219 219 220 221 221 222 222 221 219 215 214 213 212 213 215 215 214 213 210 207 203 198 198 197 192 187 176 161 171 188 191 197 206 212 217 221 223 223 221 221 224 228 230 234